TimeEDT,TemperatureF,Dew PointF,Humidity,Sea Level PressureIn,VisibilityMPH,Wind Direction,Wind SpeedMPH,Gust SpeedMPH,PrecipitationIn,Events,Conditions,WindDirDegrees,DateUTC
12:53 AM,77.0,73.9,90,29.99,-9999.0,Calm,Calm,-,N/A,,Unknown,0,2013-08-15 04:53:00
1:53 AM,77.0,73.9,90,29.97,-9999.0,SSE,3.5,-,N/A,,Unknown,160,2013-08-15 05:53:00
2:53 AM,75.9,73.9,94,29.95,-9999.0,Calm,Calm,-,N/A,,Unknown,0,2013-08-15 06:53:00
3:53 AM,75.9,73.9,94,29.94,-9999.0,Calm,Calm,-,N/A,,Unknown,0,2013-08-15 07:53:00
4:53 AM,75.9,73.9,94,29.94,-9999.0,Calm,Calm,-,N/A,,Unknown,0,2013-08-15 08:53:00
5:53 AM,75.0,73.0,94,29.95,-9999.0,Calm,Calm,-,N/A,,Unknown,0,2013-08-15 09:53:00
6:53 AM,75.0,73.0,94,29.96,-9999.0,Calm,Calm,-,N/A,,Unknown,0,2013-08-15 10:53:00
7:53 AM,75.9,73.9,94,29.99,-9999.0,Calm,Calm,-,N/A,,Unknown,0,2013-08-15 11:53:00
8:53 AM,81.0,75.9,85,29.99,-9999.0,SSE,4.6,-,N/A,,Unknown,150,2013-08-15 12:53:00
9:53 AM,86.0,77.0,74,30.00,-9999.0,South,4.6,-,N/A,,Unknown,180,2013-08-15 13:53:00
10:53 AM,86.0,73.9,67,30.00,-9999.0,South,6.9,-,N/A,,Unknown,190,2013-08-15 14:53:00
11:53 AM,88.0,75.0,65,30.00,-9999.0,Variable,6.9,-,N/A,,Unknown,0,2013-08-15 15:53:00
1:53 PM,91.0,73.9,57,29.97,-9999.0,SSW,13.8,19.6,N/A,,Unknown,200,2013-08-15 17:53:00
2:53 PM,91.0,75.0,59,29.96,-9999.0,SW,9.2,-,N/A,,Unknown,220,2013-08-15 18:53:00
3:53 PM,91.0,72.0,53,29.95,-9999.0,SSW,11.5,19.6,N/A,,Unknown,200,2013-08-15 19:53:00
4:53 PM,90.0,72.0,55,29.94,-9999.0,SW,15.0,20.7,N/A,,Unknown,220,2013-08-15 20:53:00
5:53 PM,88.0,73.0,61,29.95,-9999.0,SW,8.1,-,N/A,,Unknown,230,2013-08-15 21:53:00
6:53 PM,87.1,73.0,63,29.95,-9999.0,SW,9.2,-,N/A,,Unknown,220,2013-08-15 22:53:00
7:53 PM,82.9,73.0,72,29.97,-9999.0,SW,4.6,-,N/A,,Unknown,220,2013-08-15 23:53:00
8:53 PM,80.1,73.9,81,30.00,-9999.0,Calm,Calm,-,N/A,,Unknown,0,2013-08-16 00:53:00
9:53 PM,79.0,75.0,88,30.01,-9999.0,Calm,Calm,-,N/A,,Unknown,0,2013-08-16 01:53:00
10:53 PM,78.1,73.9,87,30.02,-9999.0,Calm,Calm,-,N/A,,Unknown,0,2013-08-16 02:53:00
11:53 PM,78.1,75.0,90,30.01,-9999.0,Calm,Calm,-,0.01,,Unknown,0,2013-08-16 03:53:00